[[{"header":{"parameterUnit":"m.s-1","parameterCategory":1,"la1":30.2991,"la2":30.254,"lo1":-89.0895,"lo2":-89.0444,"dy":0.0017,"dx":0.0017,"nx":28,"ny":28,"refTime":"2025-06-23T03:00:00:Z","depth":0,"parameterNumber":2,"parameterNumberName":"U-component_of_WINDS"},"data":[0,0,0,0,0,0,0,0,0,0,0,0,0,0,0,0,0,0,0,0,0,0,0,0,0,0,0,0,0,0,0,0,0,0,0,0,0,0,0,0,0,0,0,0,0,0,0,0,0,0,0,0,0,0,0,0,0,0,0.1805,0.1806,0,0.1936,0.1938,0.1939,0.2011,0.2011,0.2011,0.2012,0.2149,0.2152,0.2156,0,0,0,0,0,0,0,0,0,0,0,0,0,0.1617,0.162,0.1805,0.1806,0.1808,0.1936,0.1938,0.194,0.2011,0.2011,0.2012,0.2012,0.2148,0.2152,0.2156,0,0,0,0,0,0,0,0,0,0,0,0,0,0.1718,0.1621,0.1805,0.1859,0.1865,0.1936,0.1938,0.194,0.2011,0.2011,0.2012,0.2012,0.2146,0.2151,0.2157,0.2184,0,0,0.2173,0.2175,0,0,0,0,0,0,0,0,0.1712,0.1725,0.1849,0.1855,0.1862,0.1958,0.1922,0.2022,0.2011,0.1956,0.2012,0.2012,0.2085,0.2095,0.212,0.219,0.2196,0.2173,0.2176,0.2179,0.218,0,0,0,0,0,0,0,0.1705,0.172,0.1857,0.1851,0.1859,0.1877,0.1892,0.1941,0.2018,0.1961,0.1966,0.1981,0.2089,0.2114,0.2123,0.2198,0.2173,0.2178,0.2181,0.2183,0.2297,0.2297,0,0,0,0,0,0,0.1689,0.1714,0.1853,0.1861,0.1786,0.1881,0.1897,0.1927,0.2017,0.2031,0.198,0.1983,0.2105,0.2117,0.2129,0.2166,0.2179,0.2183,0.2186,0.2297,0.2297,0.2297,0,0,0,0,0,0,0.1685,0.1701,0.1848,0.1789,0.1809,0.1883,0.1916,0.1929,0.1955,0.2032,0.2046,0.1992,0.2106,0.2121,0.2169,0.2172,0.2186,0.2191,0.2297,0.2297,0.2297,0.2241,0,0,0,0,0,0,0.1679,0.1699,0.171,0.1788,0.1812,0.1885,0.1917,0.1932,0.1964,0.1969,0.2047,0.206,0.2107,0.2161,0.2174,0.2179,0.2195,0.2297,0.2297,0.2297,0.2243,0.2239,0.2235,0,0,0,0,0,0.1672,0.169,0.171,0.1726,0.1827,0.1885,0.1899,0.1952,0.1963,0.1975,0.2024,0.2058,0.2169,0.2165,0.2181,0.2187,0.2298,0.2297,0.2297,0.2244,0.2239,0.2235,0,0,0,0,0,0,0.161,0.1701,0.1725,0.1768,0.1818,0.1897,0.1914,0.1945,0.1994,0.1997,0.2062,0.2079,0.2121,0.2159,0.2153,0.2218,0.2237,0.224,0.2191,0.2187,0.2184,0.2173,0.2199,0,0,0,0,0,0.1601,0.1641,0.1718,0.1749,0.1773,0.1838,0.1866,0.1903,0.1958,0.198,0.2033,0.2085,0.2132,0.2162,0.221,0.2248,0.2266,0.226,0.2257,0.2253,0.2255,0.2278,0.2276,0.2296,0.2296,0.2296,0,0,0.1584,0.1638,0.166,0.1738,0.1781,0.1821,0.1856,0.1897,0.1927,0.1986,0.2035,0.2075,0.2138,0.2181,0.2203,0.2215,0.2253,0.2253,0.2249,0.2253,0.2277,0.2275,0.2273,0.2296,0.2296,0.2296,0,0,0.1573,0.1618,0.1648,0.169,0.1755,0.1798,0.1805,0.1879,0.1908,0.1957,0.2002,0.2039,0.2119,0.2162,0.2194,0.2197,0.2229,0.2211,0.2191,0.2212,0.2211,0.221,0.221,0.221,0.2212,0.2212,0.2212,0,0.1543,0.1604,0.1659,0.1697,0.173,0.1784,0.1815,0.1854,0.1931,0.1952,0.1964,0.2064,0.211,0.2164,0.2164,0.2189,0.2199,0.2202,0.2206,0.2206,0.2206,0.2207,0.2207,0.2209,0.221,0.221,0.221,0,0.1564,0.1606,0.1622,0.1694,0.1729,0.1763,0.1823,0.1852,0.1885,0.1927,0.1976,0.2034,0.2093,0.2109,0.2142,0.2167,0.2172,0.2194,0.2214,0.22,0.2202,0.2203,0.2205,0.2206,0.2207,0.2208,0,0,0.1518,0.1619,0.1624,0.1657,0.1732,0.1765,0.1801,0.1859,0.1882,0.1933,0.1965,0.203,0.2051,0.2087,0.2126,0.2144,0.2142,0.2164,0.2167,0.2158,0.2172,0.2155,0.2154,0.2164,0.2164,0.2164,0.2167,0,0.1517,0.1584,0.1634,0.1682,0.1721,0.1772,0.1804,0.1853,0.1893,0.1933,0.1978,0.2022,0.2046,0.2068,0.2089,0.2138,0.2146,0.2138,0.2194,0.2196,0.2176,0.2156,0.2138,0.2137,0.2168,0.2168,0.2168,0,0.1525,0.1572,0.1624,0.1694,0.1712,0.1739,0.1795,0.1832,0.1889,0.1917,0.1956,0.1996,0.2036,0.2052,0.2109,0.2103,0.2129,0.2156,0.2157,0.2165,0.2181,0.2162,0.2138,0.2138,0.217,0.217,0.217,0,0.1485,0.1563,0.1603,0.163,0.1712,0.173,0.1765,0.1823,0.1853,0.1902,0.1923,0.1976,0.2005,0.2046,0.2099,0.2105,0.215,0.2171,0.2174,0.2173,0.2182,0.218,0.2161,0.2198,0.2198,0.2198,0.2198,0,0.1478,0.1508,0.1586,0.1611,0.1645,0.1703,0.1735,0.1775,0.1825,0.1859,0.1907,0.1938,0.2006,0.2045,0.2086,0.2127,0.214,0.2163,0.2174,0.2159,0.2156,0.2177,0.2178,0.2198,0.2198,0.2198,0.2198,0,0.144,0.1494,0.1541,0.1615,0.1634,0.1656,0.1719,0.1746,0.1788,0.183,0.1843,0.1909,0.1958,0.2014,0.2081,0.2109,0.2146,0.2162,0.2126,0.2132,0.2133,0.2131,0.2126,0.2128,0.2164,0.2163,0.2163,0,0.1432,0.1455,0.1531,0.1556,0.159,0.1631,0.1662,0.172,0.175,0.1816,0.1834,0.1886,0.193,0.2004,0.2059,0.211,0.2128,0.2122,0.2136,0.212,0.2127,0.2125,0.2127,0.2119,0.2118,0.2117,0.2117,0,0.1411,0.1437,0.1479,0.1531,0.1567,0.1611,0.1657,0.1675,0.1742,0.1774,0.1823,0.1857,0.1925,0.1975,0.2033,0.207,0.2104,0.2112,0.2116,0.21,0.2078,0.209,0.2116,0.2112,0.2113,0.2113,0.2113,0.2113,0.1388,0.1411,0.1467,0.1513,0.1553,0.1595,0.1623,0.1668,0.171,0.1768,0.18,0.1848,0.1904,0.1985,0.2021,0.206,0.2072,0.2077,0.2078,0.2078,0.2074,0.2072,0.2071,0.2071,0.2071,0.2071,0.2071,0,0.137,0.1408,0.145,0.1512,0.1548,0.1576,0.1628,0.1656,0.1698,0.1747,0.1789,0.1845,0.1894,0.1952,0.2004,0.2024,0.2041,0.2036,0.2035,0.2043,0.206,0.2052,0.2021,0.2021,0.2021,0.2021,0.2021,0.2021,0.1364,0.1404,0.1436,0.1496,0.1535,0.1582,0.1609,0.1648,0.1687,0.1747,0.1787,0.1824,0.1877,0.1933,0.1979,0.1995,0.2012,0.2002,0.2022,0.2038,0.2042,0.2046,0.2038,0.2005,0.2005,0.2002,0.2002,0.2002]},{"header":{"parameterUnit":"m.s-1","parameterCategory":1,"la1":30.2991,"la2":30.254,"lo1":-89.0895,"lo2":-89.0444,"dy":0.0017,"dx":0.0017,"nx":28,"ny":28,"refTime":"2025-06-23T03:00:00:Z","depth":0,"parameterNumber":3,"parameterNumberName":"V-component_of_WINDS"},"data":[0,0,0,0,0,0,0,0,0,0,0,0,0,0,0,0,0,0,0,0,0,0,0,0,0,0,0,0,0,0,0,0,0,0,0,0,0,0,0,0,0,0,0,0,0,0,0,0,0,0,0,0,0,0,0,0,0,0,2.5335,2.5334,0,2.5264,2.5263,2.5262,2.5231,2.5232,2.5232,2.5232,2.5154,2.5152,2.515,0,0,0,0,0,0,0,0,0,0,0,0,0,2.5441,2.5439,2.5335,2.5334,2.5333,2.5264,2.5263,2.5262,2.5231,2.5232,2.5232,2.5232,2.5155,2.5152,2.515,0,0,0,0,0,0,0,0,0,0,0,0,0,2.5385,2.5439,2.5335,2.531,2.5307,2.5264,2.5263,2.5262,2.5231,2.5232,2.5232,2.5232,2.5156,2.5153,2.5149,2.5125,0,0,2.5139,2.5138,0,0,0,0,0,0,0,0,2.5388,2.5381,2.5315,2.5312,2.5308,2.5257,2.5272,2.5216,2.5231,2.526,2.5232,2.5232,2.5188,2.5182,2.5168,2.5122,2.5118,2.5139,2.5137,2.5136,2.5135,0,0,0,0,0,0,0,2.5392,2.5384,2.5307,2.5314,2.531,2.5301,2.5293,2.5261,2.5223,2.5257,2.5255,2.5247,2.5186,2.5171,2.5166,2.5117,2.5139,2.5136,2.5134,2.5133,2.5047,2.5047,0,0,0,0,0,0,2.5401,2.5387,2.5309,2.5305,2.535,2.5299,2.529,2.5273,2.5224,2.5217,2.5247,2.5246,2.5177,2.517,2.5163,2.5132,2.5136,2.5133,2.5131,2.5048,2.5047,2.5047,0,0,0,0,0,0,2.5403,2.5394,2.5312,2.5345,2.5334,2.5297,2.5278,2.5271,2.5257,2.5216,2.5209,2.5239,2.5177,2.5168,2.5135,2.5129,2.5131,2.5128,2.5048,2.5047,2.5047,2.5069,0,0,0,0,0,0,2.5406,2.5395,2.5386,2.5345,2.5333,2.5286,2.5277,2.527,2.5252,2.525,2.5207,2.52,2.5176,2.514,2.5132,2.5124,2.5126,2.5048,2.5048,2.5047,2.5068,2.5069,2.507,0,0,0,0,0,2.541,2.5394,2.5386,2.5377,2.5321,2.5286,2.5279,2.5253,2.5251,2.5242,2.5216,2.5201,2.5131,2.5137,2.5128,2.5119,2.5049,2.5048,2.5047,2.5068,2.5069,2.507,0,0,0,0,0,0,2.5433,2.5388,2.5379,2.5349,2.5322,2.5281,2.5268,2.5255,2.5226,2.5225,2.5193,2.5184,2.5154,2.5133,2.5141,2.5093,2.5088,2.5086,2.5108,2.5108,2.5109,2.5114,2.5123,0,0,0,0,0,2.5436,2.5412,2.5374,2.5351,2.5338,2.5306,2.5289,2.5273,2.5242,2.523,2.5202,2.5172,2.5143,2.5124,2.5095,2.5065,2.5055,2.5054,2.5055,2.5056,2.5054,2.5036,2.5035,2.5045,2.5045,2.5045,0,0,2.5439,2.5411,2.5398,2.5355,2.5332,2.5308,2.5296,2.527,2.5252,2.5225,2.5194,2.5172,2.5136,2.5105,2.509,2.5086,2.5049,2.5055,2.5056,2.5053,2.5035,2.5035,2.5034,2.5044,2.5044,2.5044,0,0,2.5433,2.541,2.5389,2.5367,2.5332,2.5311,2.5306,2.5267,2.5252,2.522,2.52,2.5176,2.5127,2.5103,2.5084,2.507,2.5055,2.5061,2.5064,2.5047,2.5047,2.5046,2.504,2.5039,2.5059,2.5059,2.5059,0,2.5441,2.5404,2.538,2.5356,2.5337,2.5314,2.5292,2.5271,2.5228,2.5216,2.5213,2.5152,2.5126,2.5089,2.5085,2.5071,2.5064,2.5066,2.5049,2.5048,2.5047,2.5041,2.5039,2.506,2.506,2.506,2.506,0,2.5416,2.5391,2.5378,2.534,2.532,2.5297,2.5267,2.525,2.5235,2.5213,2.5181,2.5149,2.5114,2.5104,2.5088,2.5065,2.5064,2.5055,2.505,2.5047,2.5042,2.5039,2.5062,2.5061,2.5061,2.5061,0,0,2.5422,2.5371,2.5366,2.5349,2.531,2.5289,2.5265,2.5232,2.5218,2.5189,2.5167,2.5127,2.512,2.5098,2.508,2.5065,2.5056,2.5058,2.5057,2.5059,2.5028,2.5034,2.5032,2.5046,2.5046,2.5045,2.5031,0,2.541,2.5367,2.5345,2.5311,2.5288,2.5266,2.5245,2.5218,2.5197,2.5173,2.515,2.5122,2.5114,2.5101,2.5086,2.506,2.5049,2.5061,2.5025,2.5024,2.5034,2.5029,2.5035,2.5023,2.5028,2.5028,2.5027,0,2.539,2.5364,2.5329,2.5293,2.5282,2.5264,2.5232,2.521,2.5179,2.5165,2.5142,2.5124,2.5096,2.5094,2.5055,2.5064,2.5048,2.5033,2.5032,2.5027,2.5025,2.5024,2.5018,2.5017,2.5024,2.5024,2.5024,0,2.5398,2.5354,2.5327,2.5313,2.527,2.5258,2.5239,2.5208,2.519,2.5162,2.515,2.5118,2.5101,2.5076,2.505,2.505,2.5014,2.5009,2.5,2.5001,2.4993,2.4994,2.4985,2.4983,2.4983,2.4983,2.4984,0,2.5387,2.5366,2.533,2.5314,2.5289,2.5263,2.5239,2.5219,2.5192,2.517,2.5149,2.5129,2.5095,2.5071,2.5049,2.5021,2.5013,2.5,2.4995,2.5002,2.5003,2.499,2.499,2.4983,2.4983,2.4983,2.4983,0,2.5391,2.5366,2.5336,2.5299,2.5289,2.5273,2.524,2.5223,2.5202,2.5175,2.5167,2.5133,2.5103,2.5075,2.5034,2.502,2.4991,2.4984,2.5002,2.4999,2.4992,2.4993,2.4974,2.497,2.4971,2.4971,2.4971,0,2.5386,2.537,2.5332,2.5316,2.5299,2.5274,2.5256,2.523,2.5211,2.5175,2.5162,2.5131,2.5104,2.5057,2.5028,2.4997,2.4989,2.4984,2.4984,2.4992,2.4989,2.499,2.4988,2.4985,2.4985,2.4985,2.4985,0,2.5379,2.5368,2.5343,2.5315,2.5294,2.527,2.5245,2.5233,2.5201,2.5182,2.5152,2.5132,2.5091,2.506,2.5026,2.5005,2.4989,2.4986,2.4982,2.4989,2.5,2.4994,2.5003,2.4986,2.4986,2.4986,2.4986,2.4986,2.5378,2.5363,2.5334,2.5307,2.5286,2.5263,2.5245,2.5223,2.5198,2.5164,2.5149,2.5119,2.5088,2.5041,2.502,2.4995,2.4992,2.4986,2.4985,2.4984,2.4985,2.5005,2.4989,2.4989,2.4989,2.4989,2.4989,0,2.537,2.535,2.5326,2.5293,2.5272,2.5261,2.5233,2.5216,2.519,2.5163,2.5138,2.5104,2.5074,2.5043,2.5011,2.4997,2.4989,2.4989,2.499,2.4985,2.4991,2.4997,2.4996,2.4996,2.4996,2.4996,2.4997,2.4997,2.5363,2.5337,2.5322,2.5285,2.5265,2.5237,2.5222,2.52,2.5179,2.5142,2.5118,2.5098,2.507,2.5036,2.5008,2.4999,2.4988,2.4991,2.498,2.4985,2.4985,2.4985,2.499,2.4989,2.4989,2.4977,2.4977,2.4977]}]]